sat.trackr.live / text

‹ back to catalog

STARLINK-30267

NORAD 57663 · 2023-124A

PAYLOAD ACTIVE UNKNOWN

§ Identity

Operator
Country
US
Launch date
2023-08-22
Launch site
AFWTR
Launch vehicle
Mass (kg)
RCS (m²)

Purposes: comms

External: N2YO · Heavens-Above · Gunter

§ Orbital elements

Epoch: 2026-05-24T21:44:07.829088Z

Period
94.11 min
Inclination
53.1604°
Eccentricity
0.0001059
Mean motion
15.30189270 rev/d
Perigee alt
474.5 km
Apogee alt
476.0 km
Semi-major
6,853.4 km
B*
3.4989e-6
RAAN
213.0091°
Arg perigee
92.5366°
Mean anomaly
267.5756°
Rev number
15,523

§ Raw data

STARLINK-302671 57663U 23124A   26144.90564617 -.00000255  00000+0  34989-5 0  99942 57663  53.1604 213.0091 0001059  92.5366 267.5756 15.30189270155230

JSON: /api/v1/satellites/57663 · /tle

For live sub-satellite position, see the globe view (requires WebGL).

§ Visibility from observer

Set your observer location to see the next 7 days of passes ≥ 10°. The values pass through the URL so the page stays shareable.

No JS? Fill the form by hand. The geolocation button needs JavaScript.